Regional Weather Roundup
Issued by NWS Green Bay, WI

Home | Current Version | Previous Version | Graphics & Text | Print | Product List | Glossary Off
Versions: 1 2 3 4 5 6 7 8 9 10 11 12 13 14 15 16 17 18 19 20 21 22 23 24 25 26 27 28 29 30 31 32 33 34 35 36 37 38 39 40 41 42 43 44 45 46 47 48 49 50

000
ASUS43 KGRB 161801
RWRGRB

NORTH-CENTRAL AND NORTHEAST WISCONSIN REGIONAL WEATHER ROUNDUP
NATIONAL WEATHER SERVICE GREEN BAY WI
100 PM CDT WED AUG 16 2017

WIZ005-009-010>012-018-019-161900-
NORTH CENTRAL WISCONSIN

CITY           SKY/WX    TMP DP  RH WIND       PRES   REMARKS
IRONWOOD       CLOUDY    73  57  57 VRB7      29.99F
MANITOWISH WTR NOT AVBL
ARBOR VITAE    NOT AVBL
EAGLE RIVER    NOT AVBL
LAND O LAKES   MOSUNNY   73  54  50 S7        30.04F
RHINELANDER    CLOUDY    73  59  61 VRB7      30.03F
PHILLIPS       CLOUDY    71  60  67 S9        29.99F
ANTIGO         NOT AVBL
TOMAHAWK       NOT AVBL
MERRILL        NOT AVBL
$$

WIZ013-073-161900-
NORTHEAST WISCONSIN

CITY           SKY/WX    TMP DP  RH WIND       PRES   REMARKS
IRON MOUNTAIN  SUNNY     73  55  53 S7        30.04F
MARINETTE      SUNNY     70  60  70 E7        30.04F
$$

WIZ017-030-035>037-045-161900-
CENTRAL WISCONSIN

CITY           SKY/WX    TMP DP  RH WIND       PRES   REMARKS
MEDFORD        NOT AVBL
WAUSAU         PTSUNNY   73  59  61 SE9       29.99F
MOSINEE        MOSUNNY   72  61  68 SE10      30.01F
MARSHFIELD     PTSUNNY   76  60  57 SE13      29.97F
WISC RAPIDS    SUNNY     78  62  57 SE13G18   29.98F
STEVENS POINT  NOT AVBL
WAUPACA        NOT AVBL
SHAWANO        PTSUNNY   75  60  58 SE9       30.02F
CLINTONVILLE   MOSUNNY   73  59  60 SE6       30.01F
WAUTOMA        MOSUNNY   78  61  55 E8        29.98F
$$

WIZ038-039-048-051-161900-
FOX VALLEY

CITY           SKY/WX    TMP DP  RH WIND       PRES   REMARKS
NWS GREEN BAY  CLOUDY    75  65  70 NE5       30.02S
APPLETON       MOSUNNY   75  52  43 SE9       30.00F
OSHKOSH        SUNNY     76  63  64 E8        30.00F
FOND DU LAC    MOSUNNY   80  61  52 E8        29.99F
$$

WIZ022-050-052-161900-
EAST CENTRAL WISCONSIN

CITY           SKY/WX    TMP DP  RH WIND       PRES   REMARKS
EPHRAIM        NOT AVBL
WASHINGTON ISL NOT AVBL
STURGEON BAY   SUNNY     71  60  68 E5        30.04S
MANITOWOC      NOT AVBL
SHEBOYGAN      SUNNY     74  65  73 NE7       30.02F
$$

LMZ563-521-522-541>543-161900-
LAKESHORE

STATION/POSITION TIME  TEMP    WIND        PRES    VSBY  WAVE
                       AIR SEA DIR/SP/G                  HT/PER
                 (UTC) (F)     (DEG/KT/KT) (MB)    (MI)  (FT/S)
SHEBOYGAN LKSHOR 1700   67      60/  5/  5 1016.5R
KEWAUNEE LKSHORE 1730   71      50/  3/  7 1016.4F
NORTHPORT PIER   1740   67      90/  7/  9 1016.9S
N MID LAKE BUOY  1650   66 68  100/  6/  6 1017.9F         1
S GREEN BAY BUOY 1730   68 72   40/ 10/ 12 1016.7F
SISTER BAY LKSHO 1703   75      80/ 10/ 14   N/A
MENOMINEE LKSHOR 1730   65      20/ 11/ 12 1016.6F
$$




USA.gov is the U.S. government's official web portal to all federal, state and local government web resources and services.